Wetbulb
58.14 58.19 58.04 57.99 58.02 57.75 57.45 57.64 57.48 57.42 57.18 57.10 57.12 57.04 57.20 57.31 57.59 57.72 58.17 58.20 58.02 57.89 58.06 58.57 59.59 60.96 56.00 52.23 52.85 73.17 79.24 78.50 76.35 72.27 70.06 66.96 64.09 63.90 59.25 62.37 63.52 61.74 62.06 63.29 63.88 64.19 64.43
58.35 58.32 58.24 58.02 57.91 57.68 57.32 57.32 57.20 56.99 57.03 57.19 57.30 57.55 57.55 57.63 57.76 57.72 58.13 58.00 57.43 57.35 57.74 58.60 60.18 61.60 54.85 44.23 57.49 73.51 74.94 74.26 72.85 70.81 69.73 68.78 66.30 66.57 63.59 63.10 61.80 63.28 63.63 62.02 63.99 64.00 64.58
58.34 58.45 58.59 58.30 57.80 57.30 57.33 57.08 56.93 56.81 56.74 56.67 57.05 57.38 57.46 57.46 57.78 57.67 57.56 57.33 56.66 57.00 57.78 59.26 60.79 61.58 53.43 51.60 65.32 69.36 69.69 68.59 71.86 70.97 68.29 69.40 67.97 64.89 64.14 62.21 64.63 63.90 60.23 60.80 62.55 64.12 63.53
58.57 58.30 57.38 58.11 57.68 57.19 57.20 56.63 56.72 56.85 56.90 57.01 56.86 57.06 57.23 57.27 57.24 57.18 56.60 56.01 56.03 57.28 58.83 60.03 62.75 57.97 48.65 57.82 58.07 63.40 65.07 65.13 70.94 70.89 71.21 69.18 68.52 65.19 65.54 65.53 63.08 59.86 58.18 55.61 60.81 63.63 63.57
57.88 56.98 58.35 57.96 57.34 57.47 57.32 56.86 56.45 56.80 56.57 56.62 56.70 56.70 56.60 56.68 56.55 56.05 55.32 55.32 56.54 58.79 60.27 61.76 55.11 53.38 49.93 62.43 56.15 56.37 64.90 64.58 66.00 67.85 69.83 71.69 67.42 63.88 64.03 59.19 56.05 58.19 52.45 55.45 59.01 63.39 62.08
58.06 58.26 58.32 57.33 57.06 57.32 57.11 56.92 56.63 56.47 56.38 56.28 56.14 56.11 56.08 55.99 55.79 55.13 54.46 55.05 56.31 57.88 60.69 62.42 62.05 50.94 54.10 53.71 53.56 56.19 61.73 66.34 64.60 63.92 63.99 65.26 62.52 58.55 56.80 56.56 50.15 53.04 53.36 56.02 54.42 59.67 61.70
58.72 58.01 57.37 56.95 57.00 57.27 57.13 56.69 56.51 56.44 56.50 56.24 55.85 55.74 55.51 55.43 54.91 54.01 52.20 51.03 51.95 51.22 53.31 49.93 48.54 53.60 56.25 55.19 54.32 53.19 55.30 55.56 60.36 60.71 56.86 60.20 55.95 53.24 55.47 58.81 57.73 56.45 55.14 54.35 57.79 60.18 58.36
58.13 57.40 56.81 56.70 57.29 57.30 56.72 56.44 56.21 56.29 56.16 56.14 55.64 55.25 55.05 54.59 53.79 53.42 50.25 50.21 52.21 53.19 48.12 55.07 56.87 56.03 58.12 56.15 53.05 52.28 52.86 50.81 55.24 55.01 57.36 54.99 52.57 58.85 60.86 60.69 58.16 57.15 55.07 54.96 58.01 60.37 59.79
57.59 57.31 57.20 57.31 57.24 56.66 56.49 56.20 56.10 55.88 55.80 55.51 55.35 54.90 54.39 53.72 52.98 51.53 50.08 52.60 55.89 55.13 46.88 51.56 53.87 54.16 55.18 56.01 53.31 52.56 51.51 50.38 54.86 54.72 55.00 53.23 56.76 61.56 61.06 59.19 56.39 55.19 55.23 55.52 55.17 58.38 60.07
57.78 57.29 57.16 57.28 56.84 56.39 56.31 56.08 56.06 55.87 55.47 55.21 54.88 54.52 53.60 52.59 49.77 48.23 50.09 52.52 51.60 54.13 42.00 47.13 49.40 52.98 54.90 56.14 48.28 53.33 53.04 54.19 56.17 55.05 54.66 53.76 59.36 61.07 59.83 57.07 57.42 52.51 59.22 58.22 56.83 54.18 51.28
57.52 57.25 57.35 56.97 56.64 56.33 55.90 55.81 55.87 55.60 55.10 54.69 54.60 53.79 52.57 51.45 45.62 47.27 51.64 52.89 53.64 52.42 37.63 51.92 48.71 55.39 53.50 48.71 47.64 49.48 53.63 52.73 53.29 52.85 52.50 52.04 54.64 58.92 58.17 57.89 59.28 56.20 59.22 57.62 57.10 55.34 53.81
57.70 57.30 57.06 56.88 56.88 56.16 55.59 55.50 55.54 55.00 54.49 54.16 53.59 52.69 51.89 49.89 46.33 49.31 51.85 51.37 51.43 42.89 38.93 48.49 51.11 48.98 48.04 46.86 47.33 49.32 50.68 51.39 52.17 50.65 50.82 52.05 55.15 56.21 58.02 62.32 61.05 60.69 57.18 57.13 56.73 54.41 47.21
57.66 57.26 56.83 56.68 56.47 55.87 55.52 55.58 55.12 54.48 53.73 53.07 51.96 50.86 49.65 51.66 48.04 50.53 50.48 48.79 41.35 38.04 50.75 46.78 45.83 46.78 45.23 44.99 47.09 46.65 46.30 44.33 44.21 42.59 44.76 48.82 50.89 54.21 61.63 58.17 59.99 58.54 52.87 46.85 44.31 45.32 45.59
57.34 56.80 56.65 56.36 55.93 55.66 55.52 55.42 54.81 54.03 53.15 52.09 50.50 50.03 50.28 51.10 49.23 50.72 48.75 44.68 37.17 47.91 46.07 48.96 46.92 44.31 44.54 45.23 45.18 45.86 43.42 41.97 44.77 46.20 43.43 43.83 44.05 51.15 59.72 58.63 55.91 55.19 51.92 46.81 41.40 42.61 45.45
57.03 56.60 56.13 55.76 55.45 55.40 55.40 55.10 54.34 53.54 52.63 51.32 50.16 47.73 48.97 52.13 52.59 50.64 45.94 38.32 41.25 44.41 48.68 47.43 47.05 42.50 41.92 44.28 44.06 43.77 42.91 42.25 45.59 47.09 45.02 42.34 45.27 53.94 60.34 60.99 59.71 54.54 48.51 53.44 47.30 47.54 45.07
56.44 55.80 55.59 55.46 55.23 55.24 55.26 54.95 54.09 53.29 52.59 51.24 44.88 46.37 49.82 55.64 53.41 47.23 41.53 38.91 42.35 47.75 48.04 47.71 42.95 44.39 40.58 44.09 42.17 40.43 41.98 44.60 45.95 49.36 48.62 46.45 42.95 50.74 60.17 60.07 59.79 54.87 56.95 47.50 47.79 42.56 42.19
55.10 55.07 55.58 55.44 55.23 55.12 55.16 54.87 54.07 53.05 52.11 50.60 45.75 45.97 53.27 54.21 50.78 43.97 36.67 38.01 44.78 48.46 48.92 45.65 45.05 43.93 43.07 43.13 42.82 41.79 41.84 45.86 47.47 48.25 48.59 46.66 44.93 47.70 53.86 54.00 54.05 52.83 49.75 50.30 50.79 47.76 42.36
54.71 55.48 55.50 55.36 54.99 54.92 55.08 54.75 53.89 52.54 51.31 47.28 42.41 43.13 53.19 51.64 43.17 38.81 37.41 41.78 47.36 47.75 49.14 45.89 47.11 46.88 44.69 44.73 42.84 42.74 44.84 46.77 49.96 47.96 46.51 47.26 43.46 42.48 46.45 58.63 58.61 56.47 53.66 51.50 47.80 47.76 48.98
54.94 55.14 55.04 54.93 54.86 55.01 55.10 54.46 53.52 52.43 51.75 44.28 39.70 42.49 52.13 50.43 37.61 37.18 41.87 45.61 47.39 47.72 47.54 47.63 44.78 44.94 44.99 42.89 41.79 45.13 47.13 51.76 51.96 48.54 44.16 47.07 42.07 41.71 42.23 50.55 53.39 54.42 54.89 52.92 53.53 52.78 49.34
54.25 54.46 54.24 54.61 54.91 54.96 54.84 54.36 53.56 52.77 51.98 45.24 42.42 41.94 44.26 45.92 42.48 39.76 38.45 40.69 42.67 48.72 48.62 46.71 46.95 46.69 44.96 42.72 42.91 43.54 46.15 50.76 53.42 51.38 62.25 54.45 41.78 42.57 42.14 44.60 53.41 53.41 55.51 56.13 54.12 49.95 50.37
54.21 54.09 54.03 54.03 54.73 55.05 54.94 54.69 53.83 52.62 51.49 46.30 44.13 39.31 41.87 36.38 39.40 39.60 37.45 39.88 42.39 41.80 45.18 45.78 44.32 44.89 43.53 39.88 42.98 43.70 48.15 48.95 52.19 55.36 49.77 44.46 40.69 41.66 44.21 50.23 53.93 55.93 56.59 56.44 53.10 52.53 49.70
53.91 53.73 53.86 53.97 54.19 54.79 54.99 54.98 54.11 52.78 51.18 46.20 40.55 39.26 41.36 38.15 38.98 38.80 38.24 37.99 40.33 41.66 42.38 41.64 41.48 44.09 44.25 39.46 39.49 39.81 43.14 44.84 46.03 48.44 47.98 43.95 41.95 45.93 42.32 50.05 53.88 54.23 56.95 56.73 56.27 56.30 54.79
53.73 53.60 53.65 53.74 53.97 53.98 54.48 54.98 54.48 53.07 49.31 42.48 43.86 44.34 41.34 39.15 37.43 36.04 35.95 39.63 42.05 42.20 43.24 44.74 44.37 42.68 41.88 43.12 45.50 46.14 46.62 47.63 49.40 48.50 45.67 41.41 41.23 39.88 37.54 49.69 51.96 49.99 54.25 54.96 56.27 57.50 56.62
53.43 53.48 53.50 53.59 53.70 53.76 54.00 55.09 54.75 53.83 51.51 44.33 42.95 42.00 38.68 35.63 37.90 38.58 42.14 43.56 42.17 41.77 40.28 43.68 44.26 41.10 44.78 47.78 48.39 47.07 47.51 48.25 49.11 48.05 43.96 41.93 40.01 39.15 38.92 45.04 41.00 49.98 58.44 58.47 56.63 57.86 58.76
53.26 53.35 53.42 53.54 53.55 53.51 53.72 54.25 54.80 54.22 53.09 45.68 44.65 42.34 38.81 34.46 38.88 40.93 41.52 41.42 41.38 40.66 40.60 42.46 44.07 44.32 46.88 44.76 40.98 39.92 43.12 44.89 45.59 48.14 45.87 44.20 41.50 40.04 38.98 37.71 44.11 52.01 54.55 54.37 54.50 54.47 59.82
53.04 53.24 53.28 53.25 53.29 53.28 53.44 53.73 54.11 54.20 53.09 46.58 44.76 44.99 41.16 36.16 34.54 42.64 40.34 40.87 36.62 35.76 37.90 41.38 43.99 44.80 45.15 41.00 39.84 35.79 37.59 42.59 43.22 46.37 43.37 42.95 43.29 43.04 39.86 37.33 38.19 46.49 56.57 59.89 59.02 50.81 59.75
52.97 53.01 53.09 53.12 53.06 53.21 53.19 53.15 53.32 53.63 53.02 48.21 45.39 45.35 41.78 36.57 39.40 40.78 37.70 37.28 42.03 38.80 35.56 38.31 40.56 39.73 41.36 37.06 36.31 36.21 37.20 44.53 40.55 41.53 39.41 40.00 40.71 40.79 40.38 40.50 42.81 49.70 56.68 58.78 49.48 51.19 60.37
52.92 52.82 53.07 53.07 53.07 53.16 53.21 53.14 52.99 53.00 53.51 48.88 45.85 46.81 42.18 38.73 40.07 43.31 44.05 40.05 40.80 39.12 34.33 38.01 37.33 40.53 40.08 35.59 38.40 38.89 38.77 42.50 42.46 44.53 44.22 39.72 39.71 40.71 40.69 40.00 40.67 52.61 53.47 52.83 54.94 57.56 60.87
52.82 52.84 52.78 53.05 53.03 53.10 53.25 53.34 53.15 53.06 53.40 52.14 42.73 46.47 46.70 43.05 40.70 44.96 46.44 47.49 46.25 45.65 40.40 38.98 36.43 36.54 41.69 40.09 41.76 39.97 41.21 43.42 41.88 40.49 46.39 42.80 44.72 43.77 45.67 45.01 50.83 52.44 52.05 56.00 58.52 58.33 60.04
MSLP
1021.97 1021.56 1021.20 1020.89 1020.51 1020.06 1019.61 1019.11 1018.67 1018.21 1017.71 1017.23 1016.72 1016.24 1015.72 1015.18 1014.58 1014.06 1013.61 1013.17 1012.75 1012.29 1011.90 1011.71 1011.35 1010.96 1010.37 1009.44 1006.47 1004.75 1005.24 1004.94 1004.93 1004.71 1004.58 1005.19 1006.49 1007.54 1008.11 1008.07 1006.60 1006.48 1005.25 1005.21 1005.10 1005.68 1006.24
1022.13 1021.79 1021.44 1021.08 1020.74 1020.25 1019.79 1019.35 1018.80 1018.26 1017.74 1017.18 1016.56 1015.93 1015.38 1014.76 1014.23 1013.68 1013.15 1012.73 1012.42 1011.91 1011.63 1011.49 1011.16 1010.99 1010.42 1008.29 1004.14 1004.23 1005.37 1005.52 1005.13 1005.29 1005.21 1005.52 1006.00 1006.61 1007.40 1007.54 1007.33 1007.58 1006.18 1005.17 1005.20 1005.79 1006.29
1022.09 1021.71 1021.32 1020.96 1020.57 1020.23 1019.81 1019.32 1018.87 1018.33 1017.80 1017.22 1016.57 1015.88 1015.15 1014.48 1013.81 1013.20 1012.73 1012.17 1011.77 1011.38 1011.15 1011.14 1010.96 1010.74 1009.77 1006.03 1004.08 1004.34 1004.94 1005.11 1004.83 1004.84 1005.07 1005.14 1005.41 1006.00 1007.43 1007.83 1007.62 1007.09 1006.61 1005.90 1006.00 1006.34 1007.13
1022.19 1021.80 1021.37 1021.09 1020.71 1020.31 1019.84 1019.33 1018.81 1018.29 1017.67 1017.07 1016.51 1015.83 1015.09 1014.34 1013.63 1012.74 1012.06 1011.47 1010.95 1010.72 1010.58 1010.63 1010.61 1010.43 1008.26 1004.47 1004.23 1004.34 1004.73 1005.42 1005.08 1004.49 1004.50 1005.43 1005.63 1006.62 1007.50 1007.36 1007.80 1008.12 1008.24 1007.44 1006.98 1006.80 1007.49
1022.17 1021.77 1021.41 1021.13 1020.75 1020.33 1019.86 1019.34 1018.80 1018.26 1017.68 1017.00 1016.27 1015.59 1014.86 1014.20 1013.46 1012.65 1011.67 1010.63 1010.01 1009.74 1009.99 1010.22 1010.39 1009.88 1007.05 1003.90 1004.01 1003.23 1003.66 1003.94 1004.62 1004.79 1004.77 1005.75 1006.22 1007.96 1008.26 1008.35 1009.67 1010.03 1009.94 1008.88 1008.14 1008.23 1007.80
1022.07 1021.70 1021.51 1021.15 1020.70 1020.25 1019.75 1019.16 1018.54 1017.99 1017.44 1016.81 1016.05 1015.25 1014.52 1013.75 1013.10 1012.42 1011.35 1009.79 1009.03 1009.34 1009.69 1009.79 1009.25 1009.15 1006.04 1003.73 1002.79 1002.64 1002.92 1003.34 1003.76 1004.01 1005.24 1006.02 1007.34 1008.76 1009.33 1008.98 1010.15 1010.02 1010.68 1010.22 1010.07 1010.42 1009.36
1022.19 1021.91 1021.59 1021.25 1020.78 1020.28 1019.79 1019.18 1018.51 1017.90 1017.28 1016.59 1015.83 1014.99 1014.13 1013.29 1012.57 1012.22 1011.31 1009.62 1009.29 1009.11 1008.64 1007.80 1007.15 1006.04 1004.54 1003.42 1002.39 1002.36 1002.41 1002.91 1003.34 1004.11 1004.90 1005.92 1007.56 1008.25 1008.32 1008.23 1009.00 1009.63 1010.78 1011.00 1011.75 1011.84 1011.13
1022.36 1022.01 1021.62 1021.23 1020.77 1020.23 1019.68 1019.11 1018.45 1017.78 1017.07 1016.35 1015.58 1014.71 1013.74 1012.80 1012.04 1011.67 1011.74 1010.45 1008.34 1007.75 1007.28 1006.18 1005.58 1005.07 1004.04 1004.19 1003.86 1002.53 1002.54 1003.37 1003.59 1004.24 1004.85 1005.71 1006.20 1006.48 1007.22 1008.67 1009.29 1010.30 1011.05 1011.56 1012.66 1012.35 1013.23
1022.45 1022.06 1021.63 1021.20 1020.74 1020.19 1019.56 1018.93 1018.30 1017.61 1016.88 1016.06 1015.28 1014.48 1013.54 1012.42 1011.38 1010.96 1010.63 1009.02 1007.32 1007.12 1007.18 1004.88 1003.92 1003.59 1002.99 1003.28 1003.19 1002.27 1002.59 1003.00 1003.55 1004.16 1004.50 1005.13 1004.54 1005.46 1007.00 1008.54 1009.72 1010.92 1010.84 1011.21 1012.59 1012.93 1012.23
1022.51 1022.10 1021.62 1021.12 1020.62 1020.05 1019.50 1018.88 1018.14 1017.39 1016.62 1015.82 1014.94 1014.20 1013.53 1012.15 1011.21 1011.05 1009.43 1007.63 1007.08 1006.87 1007.18 1004.34 1002.81 1001.49 1001.86 1002.19 1002.12 1001.19 1001.62 1002.57 1003.35 1003.70 1004.25 1004.41 1004.07 1005.27 1006.49 1008.46 1008.94 1010.69 1011.18 1011.21 1012.87 1013.45 1013.37
1022.58 1022.18 1021.67 1021.11 1020.58 1019.97 1019.31 1018.64 1017.90 1017.11 1016.26 1015.42 1014.58 1013.94 1013.43 1013.39 1012.60 1011.10 1008.58 1007.65 1007.22 1007.20 1006.19 1002.48 1001.50 999.95 1000.44 1001.58 1001.37 1000.84 1001.04 1002.00 1002.74 1003.42 1004.00 1003.25 1003.81 1004.48 1005.24 1006.19 1007.93 1009.84 1011.54 1012.21 1013.08 1014.02 1014.64
1022.57 1022.11 1021.64 1021.11 1020.53 1019.88 1019.17 1018.44 1017.57 1016.74 1015.87 1014.83 1013.90 1013.49 1013.19 1012.85 1012.59 1009.60 1008.56 1007.96 1007.63 1007.89 1004.74 1001.88 1000.64 1000.62 1001.31 1001.58 1001.47 1001.18 1001.26 1001.83 1002.38 1003.28 1003.46 1003.24 1003.10 1003.55 1003.68 1005.15 1009.01 1010.44 1012.23 1013.73 1014.79 1015.75 1015.54
1022.55 1022.06 1021.59 1021.04 1020.47 1019.84 1019.09 1018.29 1017.40 1016.37 1015.31 1014.23 1012.98 1012.26 1012.71 1011.80 1010.21 1008.55 1008.59 1008.55 1008.72 1006.87 1003.52 1002.14 1001.22 1001.07 1001.51 1001.97 1001.97 1001.96 1002.27 1002.52 1003.08 1003.85 1004.07 1003.51 1003.11 1002.52 1004.59 1007.63 1010.53 1010.53 1012.64 1014.98 1015.94 1016.01 1014.51
1022.54 1022.06 1021.55 1021.02 1020.42 1019.75 1019.00 1018.15 1017.24 1016.16 1014.91 1013.53 1012.13 1010.86 1010.56 1010.08 1008.88 1009.25 1009.20 1009.37 1008.46 1005.72 1004.04 1002.46 1001.43 1001.76 1002.14 1002.20 1002.25 1002.48 1002.90 1003.43 1003.32 1003.79 1004.51 1004.30 1003.43 1002.27 1003.03 1005.82 1008.37 1010.89 1010.98 1012.93 1014.26 1014.50 1013.55
1022.52 1022.08 1021.55 1020.98 1020.36 1019.70 1018.93 1018.05 1017.14 1015.99 1014.61 1012.95 1011.53 1010.52 1010.38 1008.24 1008.46 1009.43 1009.87 1009.85 1007.87 1005.84 1004.39 1003.10 1001.81 1002.24 1002.60 1002.41 1002.36 1002.90 1003.12 1003.26 1003.04 1003.13 1004.04 1003.99 1003.02 1002.29 1002.89 1003.83 1006.73 1009.77 1010.92 1010.91 1012.74 1014.00 1013.87
1022.53 1022.04 1021.49 1020.92 1020.30 1019.62 1018.85 1017.99 1017.05 1015.88 1014.34 1012.76 1012.27 1011.27 1009.31 1007.18 1008.12 1009.07 1009.93 1009.40 1007.34 1005.37 1004.27 1003.35 1003.31 1003.24 1003.51 1003.22 1003.17 1003.28 1002.80 1002.07 1002.15 1001.99 1002.29 1003.13 1003.38 1002.51 1003.22 1004.90 1006.76 1008.36 1008.63 1010.24 1012.09 1013.27 1013.19
1022.56 1022.08 1021.51 1020.89 1020.28 1019.60 1018.86 1018.04 1017.10 1015.92 1014.37 1012.59 1012.19 1011.13 1007.91 1007.15 1008.25 1009.72 1010.28 1009.16 1006.97 1005.14 1004.57 1003.88 1003.43 1003.58 1003.74 1003.95 1003.64 1003.39 1002.79 1001.54 1001.05 1001.20 1001.86 1002.46 1003.19 1002.03 1003.02 1003.60 1004.91 1007.23 1007.84 1009.50 1011.51 1012.29 1012.46
1022.55 1022.11 1021.55 1020.94 1020.30 1019.62 1018.89 1018.15 1017.32 1016.30 1014.91 1013.58 1013.57 1011.50 1007.80 1007.45 1009.25 1010.32 1010.25 1008.60 1007.10 1005.68 1004.48 1003.93 1003.49 1003.92 1004.45 1004.27 1004.06 1003.59 1002.95 1002.10 1001.60 1000.88 1001.68 1001.86 1002.84 1003.03 1003.11 1002.62 1003.33 1005.51 1007.28 1009.05 1010.14 1011.67 1011.53
1022.49 1022.08 1021.61 1021.07 1020.46 1019.77 1019.01 1018.25 1017.53 1016.79 1016.39 1016.46 1015.35 1012.90 1008.21 1008.27 1010.29 1011.15 1010.28 1009.02 1007.87 1006.92 1006.04 1005.42 1004.90 1004.63 1004.61 1004.87 1004.98 1004.26 1003.46 1001.93 1001.40 1001.34 1001.24 1001.15 1002.38 1002.97 1003.64 1004.04 1004.30 1005.00 1006.76 1007.46 1008.48 1009.54 1010.53
1022.43 1022.03 1021.60 1021.13 1020.58 1019.98 1019.32 1018.54 1017.66 1016.67 1016.19 1016.24 1015.78 1014.01 1011.50 1010.79 1011.71 1011.94 1011.64 1010.40 1009.01 1007.51 1006.88 1006.47 1006.40 1005.36 1005.72 1005.90 1005.60 1005.27 1004.62 1002.79 1002.60 1001.76 1000.73 1000.58 1001.59 1002.08 1002.67 1002.91 1003.03 1004.64 1005.51 1007.20 1007.85 1009.53 1008.89
1022.38 1022.03 1021.63 1021.19 1020.66 1020.06 1019.45 1018.80 1017.91 1016.67 1015.58 1015.75 1015.72 1015.69 1014.82 1014.19 1013.32 1013.06 1012.16 1011.21 1010.24 1009.07 1008.10 1007.95 1007.56 1008.56 1008.56 1008.33 1007.73 1007.34 1006.69 1005.33 1003.57 1002.58 1002.27 1002.09 1002.01 1001.70 1001.37 1001.23 1001.88 1002.83 1005.25 1006.27 1006.67 1007.21 1007.07
1022.26 1021.97 1021.60 1021.21 1020.72 1020.17 1019.56 1018.99 1018.29 1017.09 1015.57 1015.67 1016.61 1016.61 1015.89 1015.35 1014.52 1013.83 1012.92 1012.38 1011.75 1010.78 1010.08 1009.97 1009.96 1009.62 1009.66 1010.22 1010.46 1009.60 1008.79 1007.75 1006.42 1004.02 1004.28 1003.50 1002.85 1002.20 1001.62 1001.12 1001.66 1002.37 1003.69 1004.16 1004.89 1005.36 1005.12
1022.15 1021.91 1021.59 1021.23 1020.84 1020.38 1019.85 1019.22 1018.70 1018.02 1016.85 1017.53 1017.40 1016.83 1016.63 1016.19 1015.61 1014.84 1014.41 1013.59 1012.79 1012.15 1011.32 1011.40 1011.06 1010.30 1010.13 1010.22 1009.84 1009.27 1008.36 1007.85 1006.80 1006.32 1005.57 1004.76 1004.21 1003.84 1002.68 1001.53 1001.50 1002.11 1002.62 1002.93 1003.15 1003.80 1003.39
1022.02 1021.79 1021.56 1021.25 1020.95 1020.48 1020.05 1019.62 1019.12 1018.77 1018.64 1018.91 1018.60 1018.21 1017.87 1017.41 1016.65 1016.26 1015.22 1014.39 1013.91 1013.51 1012.98 1012.01 1011.62 1011.50 1011.02 1010.03 1008.82 1007.78 1007.21 1006.50 1005.87 1005.48 1005.13 1004.85 1004.96 1004.52 1003.55 1002.78 1001.91 1000.20 1000.27 999.85 1001.10 1001.52 1001.76
1021.87 1021.61 1021.38 1021.19 1020.88 1020.65 1020.30 1019.92 1019.50 1019.21 1018.96 1019.15 1018.83 1018.69 1018.67 1018.47 1017.52 1016.52 1015.90 1015.41 1014.67 1014.12 1013.70 1012.84 1012.83 1012.72 1011.47 1010.58 1010.17 1009.40 1008.05 1006.48 1004.99 1004.27 1004.33 1004.57 1004.97 1004.92 1004.11 1003.23 1001.47 999.80 999.59 999.90 1000.06 1000.43 1000.35
1021.61 1021.41 1021.23 1021.04 1020.80 1020.63 1020.31 1019.97 1019.78 1019.53 1019.28 1019.22 1019.04 1018.77 1018.83 1019.01 1017.85 1017.24 1016.75 1016.20 1015.91 1015.40 1014.87 1013.95 1013.14 1012.55 1012.16 1012.25 1011.91 1011.42 1010.42 1008.40 1006.66 1004.62 1003.44 1003.92 1004.27 1005.03 1004.37 1003.32 1001.72 999.41 998.02 997.88 998.20 999.23 998.88
1021.39 1021.19 1020.96 1020.82 1020.63 1020.46 1020.26 1020.07 1019.87 1019.67 1019.51 1019.55 1019.27 1019.01 1019.10 1019.02 1017.65 1017.18 1017.19 1017.05 1016.73 1016.64 1016.44 1015.34 1014.56 1013.75 1013.26 1013.61 1013.37 1012.49 1011.12 1009.41 1008.30 1006.68 1005.25 1004.68 1004.81 1004.82 1004.15 1003.03 1000.84 998.26 997.28 997.51 998.08 998.24 997.28
1021.14 1020.94 1020.78 1020.59 1020.41 1020.26 1020.09 1019.98 1019.87 1019.72 1019.59 1019.61 1019.55 1018.92 1019.45 1018.89 1017.58 1016.87 1016.79 1016.82 1016.70 1016.92 1016.99 1016.17 1015.53 1015.10 1015.13 1015.00 1014.67 1013.38 1011.79 1009.73 1008.74 1007.44 1006.52 1005.81 1005.12 1004.50 1003.47 1002.28 1000.39 997.47 997.29 997.03 996.74 996.44 996.20
1020.85 1020.80 1020.57 1020.32 1020.28 1020.07 1019.88 1019.73 1019.64 1019.56 1019.49 1019.47 1019.67 1018.87 1018.88 1018.97 1017.42 1016.44 1015.99 1015.90 1016.05 1016.18 1016.70 1016.34 1016.20 1016.13 1016.09 1016.36 1016.04 1015.22 1013.77 1011.31 1009.79 1008.30 1006.76 1006.07 1004.23 1003.47 1002.42 1000.72 998.84 997.86 997.44 996.07 995.53 995.73 995.53
Wind_Speed
13 14 14 14 15 16 17 18 19 20 20 21 21 21 21 20 21 21 20 20 20 20 19 16 14 13 3 2 10 7 18 10 4 3 1 5 5 4 4 4 10 5 10 11 11 14 13
12 13 13 14 14 15 16 17 18 19 20 20 21 21 21 21 22 22 21 19 19 20 17 14 11 8 0 3 4 14 18 10 6 4 3 9 8 6 4 5 10 11 12 8 10 17 16
12 12 13 15 16 16 16 17 18 18 19 20 21 21 23 23 24 24 22 21 21 20 16 11 7 4 1 14 2 7 11 9 11 9 8 4 5 6 3 2 5 8 1 7 13 14 14
11 13 15 13 15 15 16 18 19 19 19 20 20 21 22 23 24 25 24 23 23 20 14 8 6 3 9 7 2 6 7 7 11 8 9 9 3 5 2 4 8 8 5 4 5 16 12
12 16 13 14 15 15 16 17 18 18 19 20 21 22 23 23 23 24 25 27 25 15 6 5 3 3 11 11 6 10 12 7 12 7 9 10 4 4 7 6 6 5 3 4 2 11 12
13 12 13 15 16 16 17 18 19 20 20 21 22 23 23 24 23 22 25 26 13 6 4 6 5 2 5 4 5 7 9 11 5 4 7 12 4 5 3 5 6 10 3 2 4 13 10
13 14 15 15 16 16 17 18 19 20 21 22 23 24 24 25 24 20 14 6 5 4 1 9 7 5 4 4 2 4 5 5 3 3 5 12 6 8 15 10 4 13 1 1 12 15 16
13 14 15 16 16 17 18 18 20 21 22 22 23 24 25 26 25 23 1 2 4 6 9 11 16 13 15 4 6 8 7 6 5 8 4 1 7 12 12 6 7 7 2 3 6 16 7
13 14 14 14 16 17 19 20 20 21 22 23 23 24 26 28 30 3 3 6 8 4 1 9 8 8 8 11 9 12 13 8 4 5 6 8 13 13 13 8 10 3 7 1 3 9 6
13 13 14 15 17 18 18 19 21 22 22 23 24 24 24 29 4 6 5 7 6 3 5 10 6 9 7 8 6 7 14 9 5 10 7 8 4 21 15 11 14 7 7 10 5 7 3
12 13 14 16 17 19 20 20 21 22 23 24 25 23 21 11 5 3 5 10 9 6 3 3 4 2 8 10 2 3 6 4 10 7 7 14 6 10 18 18 24 7 16 11 11 5 6
13 14 15 16 17 20 21 22 23 24 25 26 27 23 17 2 1 10 8 9 5 6 4 3 6 6 7 4 3 3 4 5 4 5 6 11 3 5 9 15 7 20 18 12 7 2 3
15 15 16 16 17 19 21 22 24 26 27 28 29 26 4 3 6 1 5 5 6 3 6 2 5 6 5 5 5 5 2 2 7 5 9 7 9 11 22 26 15 22 9 4 2 1 7
14 15 16 17 18 19 20 22 24 26 28 31 32 26 5 7 6 3 4 6 2 5 2 8 2 4 9 7 7 5 5 5 4 5 4 5 10 7 11 24 21 18 9 9 9 6 3
14 15 16 17 18 20 21 23 24 27 29 33 24 3 2 6 8 3 6 4 7 2 6 8 7 5 4 4 4 6 9 9 9 12 12 4 9 4 8 13 17 10 4 6 9 1 2
14 16 16 17 19 20 21 23 25 27 31 29 4 4 5 3 8 5 6 5 4 4 6 6 5 4 3 6 4 1 7 7 7 11 9 9 5 5 11 9 4 10 17 6 3 5 4
15 16 17 17 18 20 21 23 25 28 31 25 3 4 6 6 5 6 4 7 6 7 7 4 2 1 1 4 1 2 6 8 8 9 11 7 7 13 7 7 9 2 6 8 7 3 6
14 15 16 16 18 19 21 22 23 25 28 9 4 2 4 4 4 1 2 4 7 10 7 6 3 6 5 4 5 3 3 5 7 4 9 10 7 8 9 8 12 7 7 5 5 2 1
14 14 15 16 17 19 21 22 22 21 15 4 3 4 6 6 2 4 8 6 4 10 9 8 5 2 3 3 4 3 6 10 7 5 4 7 4 7 5 7 1 7 5 5 5 5 4
14 15 16 16 17 19 20 21 22 23 18 4 2 5 6 6 2 3 6 5 8 8 1 5 5 9 10 6 3 4 8 8 18 13 12 7 6 10 11 10 7 6 11 12 6 5 6
14 15 16 16 17 18 19 20 22 25 26 3 2 2 1 4 6 6 3 2 7 9 7 15 7 12 6 8 10 12 9 12 13 5 12 5 7 7 6 11 7 20 17 10 5 5 9
13 14 15 15 16 17 18 20 21 26 23 4 3 4 5 3 4 6 5 5 8 8 7 6 8 12 7 6 1 10 12 4 8 9 12 8 5 2 3 7 15 18 18 14 7 9 14
12 13 14 14 15 16 17 17 18 21 14 4 4 4 4 5 5 4 2 6 8 6 3 8 8 7 6 11 12 12 14 11 13 12 5 3 3 5 5 3 10 13 18 14 8 8 14
11 12 13 13 14 14 14 15 14 14 10 2 2 2 4 4 3 4 9 8 11 7 4 7 7 7 9 14 9 7 7 10 13 11 9 4 2 2 4 3 5 9 22 25 21 18 17
11 11 11 12 12 12 13 13 13 12 12 2 2 3 2 3 3 6 12 6 7 8 6 4 6 3 11 7 6 9 9 9 5 9 7 7 5 3 3 6 6 2 11 13 13 11 19
9 10 11 11 11 11 12 12 11 11 12 3 3 1 2 2 4 3 4 5 3 5 7 5 4 7 8 3 2 3 4 4 7 12 3 8 5 6 2 5 9 9 8 8 9 8 15
9 9 9 10 10 11 11 11 11 10 10 2 3 2 2 1 5 3 1 1 4 4 3 5 8 8 5 3 1 4 5 3 4 4 5 2 2 7 3 3 8 9 8 8 9 10 13
9 9 9 10 10 10 10 10 10 9 9 3 5 2 2 3 6 8 4 5 1 2 2 5 6 5 5 1 1 3 3 6 4 4 6 2 2 5 3 3 4 5 5 13 10 4 15
9 9 9 9 10 11 10 10 9 8 6 3 2 3 1 3 7 3 11 12 9 10 3 2 3 1 4 0 2 3 4 5 2 6 4 6 8 6 8 8 6 3 5 8 8 8 7
Wind_Direction
13 10 5 2 359 357 355 352 350 348 346 344 340 336 332 328 326 325 322 318 318 317 318 320 322 324 337 1 251 123 126 152 160 57 250 78 76 143 164 253 274 205 128 141 139 124 115
11 9 6 2 358 354 351 349 347 345 342 340 335 331 328 324 324 323 320 316 313 312 312 313 313 318 165 235 225 149 132 154 178 164 180 137 191 178 91 347 48 305 301 133 128 138 136
4 358 356 359 356 353 349 347 345 341 339 336 331 328 326 325 323 321 318 313 310 308 304 300 287 256 137 232 61 134 149 165 179 185 181 175 108 81 128 88 312 331 88 128 129 135 137
348 351 355 359 354 350 346 344 343 339 335 332 330 327 324 323 323 320 318 310 305 301 293 268 231 223 245 241 236 181 197 154 188 212 202 111 112 68 180 189 15 50 27 76 5 141 159
351 358 9 357 350 345 342 340 339 337 336 333 328 326 324 323 321 319 315 307 303 292 219 162 125 185 264 301 152 222 169 202 172 209 215 150 77 55 358 70 19 35 337 58 26 9 162
359 0 4 353 349 344 343 340 339 338 336 332 329 326 324 323 321 321 315 301 286 300 158 186 251 356 279 237 225 174 192 213 176 204 160 185 80 65 322 118 181 238 206 114 26 351 3
14 1 355 353 347 342 341 339 336 335 333 330 328 326 323 322 320 323 337 354 17 20 192 195 204 246 284 316 304 255 193 172 179 114 217 143 146 187 194 186 169 213 308 20 83 19 3
4 357 352 349 344 340 339 338 334 332 331 328 327 326 324 322 319 320 211 4 228 197 299 228 241 251 256 46 317 262 103 150 156 223 197 28 211 209 181 147 115 143 113 17 119 111 267
0 352 347 344 343 340 338 336 333 331 329 327 325 325 326 322 318 318 199 242 291 342 296 284 205 209 226 142 212 250 148 188 191 216 226 194 239 171 147 158 132 158 178 207 88 326 252
355 350 344 340 341 340 337 334 331 330 328 325 324 326 329 327 334 323 285 284 318 92 46 276 212 251 164 181 253 205 184 149 202 209 228 225 190 150 148 179 151 166 253 120 65 35 308
351 345 339 338 339 338 336 333 330 328 325 322 320 323 326 326 295 315 274 332 330 57 33 176 186 187 140 154 196 242 152 119 199 215 121 244 161 186 176 178 179 143 128 123 94 72 16
345 339 340 337 336 336 335 333 330 329 326 322 319 320 324 102 218 242 315 306 51 50 272 222 147 163 120 155 235 324 130 106 170 216 246 248 305 209 221 157 121 112 110 58 68 103 243
345 345 343 339 338 336 335 334 332 330 327 323 319 313 267 270 229 330 321 39 53 123 308 285 196 146 154 167 250 136 234 208 179 160 250 332 287 282 99 98 125 133 125 77 22 238 227
348 345 344 343 341 339 338 335 334 332 329 324 321 315 193 215 243 343 43 58 125 238 317 297 253 74 172 168 230 189 165 225 258 135 115 192 295 205 118 143 163 181 171 155 192 214 217
347 348 345 344 343 341 340 338 338 336 332 328 319 331 188 255 209 97 71 79 214 288 305 319 6 89 304 250 186 140 201 202 218 182 201 169 256 24 61 118 143 204 221 166 101 340 40
349 346 347 346 345 343 342 342 342 340 336 333 332 337 273 240 129 75 75 239 254 310 328 346 71 56 55 311 62 66 191 209 208 196 155 222 286 131 148 122 98 194 160 82 46 147 241
347 345 342 343 344 344 344 344 344 344 341 331 25 28 259 129 77 50 149 237 285 291 351 327 291 66 350 16 328 251 236 263 196 215 169 170 139 258 138 178 180 1 349 59 104 131 154
346 345 345 346 345 345 344 346 346 346 345 26 349 33 290 76 44 52 195 222 312 307 337 313 43 43 85 349 336 314 336 226 13 268 166 203 160 240 210 176 130 137 159 180 117 179 1
342 343 345 347 345 345 345 345 345 345 11 341 3 273 307 89 70 340 311 318 322 10 355 12 326 77 137 74 2 328 343 298 341 18 235 187 222 233 14 2 342 128 197 119 123 73 152
341 344 346 347 345 345 346 345 344 339 342 124 28 13 330 38 94 66 5 323 334 320 16 6 14 28 4 356 173 300 341 318 332 327 328 167 160 169 209 195 164 110 119 127 108 139 216
338 341 344 346 346 347 348 350 350 344 345 111 66 342 322 346 340 347 348 296 329 354 13 18 44 28 352 27 350 4 356 326 318 335 358 60 200 159 198 205 124 128 151 182 163 157 199
335 339 342 345 346 348 350 353 357 354 344 61 65 36 347 287 305 12 4 355 22 348 358 27 10 347 22 88 57 305 320 28 264 322 344 349 297 316 150 167 142 133 173 170 161 181 254
332 337 340 344 347 350 352 354 1 5 7 39 323 335 94 291 339 44 42 327 10 21 320 42 346 342 0 351 315 278 258 235 245 273 306 275 40 8 254 166 117 128 173 166 150 200 210
326 331 335 341 345 348 351 353 4 12 28 133 282 4 52 291 18 2 344 19 10 6 274 331 359 19 327 310 297 304 254 229 227 234 186 265 50 166 221 90 147 229 174 168 177 194 211
319 326 329 334 341 344 348 351 1 6 9 51 300 51 68 296 352 323 356 341 333 339 339 311 11 285 305 2 13 357 337 331 260 213 197 173 125 287 169 169 247 106 156 163 157 210 202
310 318 322 326 332 336 341 346 353 359 3 24 302 335 55 104 258 25 306 335 329 341 353 318 336 315 20 41 52 168 244 293 313 330 184 130 132 151 79 161 188 231 183 193 145 201 207
300 309 314 316 318 324 332 336 343 350 356 27 281 3 39 222 265 78 60 306 292 12 280 305 334 341 29 26 198 193 228 258 263 296 312 36 77 182 176 226 284 228 157 131 133 226 201
290 297 305 308 310 315 319 325 331 340 343 30 273 284 118 266 278 265 278 247 300 167 224 296 1 4 18 50 21 288 233 219 227 241 287 222 148 209 113 162 250 251 88 161 209 242 188
287 294 298 299 304 307 309 311 312 320 324 10 292 319 5 219 243 287 269 253 229 230 183 285 216 323 185 110 61 322 313 322 125 256 309 253 189 202 173 211 222 357 318 262 172 188 161